Find Starlink 11241

NORAD ID: 60936 Int'l Des: 2024-155 Owner: SPXS Country: US Constellation: starlink operational
LEOCIRCULAR

当前视图

正在加载3D地球...

About Starlink 11241

Starlink 11241 (NORAD 60936) is a starlink constellation satellite (v2 mini d2c) launched Aug 31, 2024 by SPXS of US. It operates in LEO, CIRCULAR orbit with a mass of 960.00 kg.

关于 Starlink 11241

正在加载描述...

即将过境

Passes for default location (London). Set your location on the main map for personalized predictions.

高度历史

Loading altitude history...

两行轨道根数

1 60936U 24155N 26171.35401957 -.00000666 00000-0 -64087-6 0 9993
2 60936 53.1589 195.3934 0000838 82.9774 277.1340 15.69702058104526
Epoch: Jun 20, 2026 • Age: 50 hours

当前状态

高度 359.9 km
速度 7.70 km/s
星下点 8.38°N, 116.18°E
发射日期 Aug 31, 2024
运行时间 1.8 years
类型 internet

技术详情

分类 Payload
质量 960.00 kg
干质量 910.00 kg
总质量 960.00 kg
长度 0.30 m
直径 4.10 m
跨度 29.00 m
形状 Box + pan
制造商 SPXS
平台类型 Starlink V2MD
阶段状态 In Orbit
所有者/国家 SPXS/US

Most Searched